When you browse on this site, cookies collect data to enhance your experience and personalize the content and advertising you see.
Visit our Privacy Policy to learn more. By continuing to use the site, you agree to this use of cookies and data.
  • In Lithuania
  • List of Countries
  • For 7 days
  • Water Temperature
  • Satellite Maps
  • Weather Map
  • Weather Widgets
  • user-avatar
    Login

    Hourly Weather Ciechanowiec

    Today, 16 July, Tuesday

    Time Temperature Precipitation Wind Pressure Humidity
    00:00 +14°C° 0.2 mm 1 mps 748 mmHg 88%
    01:00 +14°C° 0 mm 1 mps 748 mmHg 86%
    02:00 +13°C° 0 mm 1 mps 747 mmHg 87%
    03:00 +13°C° 0 mm 2 mps 747 mmHg 89%
    04:00 +13°C° 0 mm 2 mps 747 mmHg 90%
    05:00 +14°C° 0 mm 2 mps 747 mmHg 87%
    06:00 +14°C° 0 mm 3 mps 747 mmHg 85%
    07:00 +17°C° 0 mm 3 mps 747 mmHg 83%
    08:00 +18°C° 0.5 mm 4 mps 747 mmHg 81%
    09:00 +17°C° 0.5 mm 5 mps 746 mmHg 79%
    10:00 +19°C° 0.5 mm 6 mps 746 mmHg 78%
    11:00 +17°C° 0.2 mm 6 mps 746 mmHg 76%
    12:00 +17°C° 0.2 mm 6 mps 746 mmHg 74%
    13:00 +16°C° 0.2 mm 6 mps 746 mmHg 73%
    14:00 +16°C° 0 mm 6 mps 746 mmHg 71%
    15:00 +17°C° 0 mm 6 mps 746 mmHg 70%
    16:00 +17°C° 0 mm 5 mps 746 mmHg 68%
    17:00 +16°C° 0.2 mm 5 mps 745 mmHg 74%
    18:00 +17°C° 0.2 mm 4 mps 745 mmHg 80%
    19:00 +15°C° 0.2 mm 4 mps 745 mmHg 85%
    20:00 +14°C° 0 mm 3 mps 745 mmHg 88%
    21:00 +13°C° 0 mm 3 mps 745 mmHg 92%
    22:00 +13°C° 0 mm 2 mps 746 mmHg 95%
    23:00 +12°C° 0 mm 2 mps 746 mmHg 95%

    Tomorrow, 17 July, Wednesday

    Time Temperature Precipitation Wind Pressure Humidity
    00:00 +12°C° 0 mm 2 mps 746 mmHg 94%
    01:00 +10°C° 0 mm 2 mps 746 mmHg 94%
    02:00 +12°C° 0.1 mm 2 mps 745 mmHg 95%
    03:00 +11°C° 0.1 mm 3 mps 745 mmHg 95%
    04:00 +11°C° 0.1 mm 3 mps 744 mmHg 95%
    05:00 +12°C° 0.6 mm 4 mps 744 mmHg 94%
    06:00 +13°C° 0.6 mm 4 mps 744 mmHg 92%
    07:00 +13°C° 0.6 mm 5 mps 744 mmHg 91%
    08:00 +14°C° 0.5 mm 5 mps 744 mmHg 86%
    09:00 +15°C° 0.5 mm 5 mps 744 mmHg 81%
    10:00 +17°C° 0.5 mm 6 mps 744 mmHg 76%
    11:00 +17°C° 1 mm 6 mps 744 mmHg 76%
    12:00 +19°C° 1 mm 6 mps 744 mmHg 75%
    13:00 +19°C° 1 mm 6 mps 744 mmHg 74%
    14:00 +19°C° 0.5 mm 6 mps 745 mmHg 73%
    15:00 +19°C° 0.5 mm 6 mps 745 mmHg 73%
    16:00 +19°C° 0.5 mm 6 mps 745 mmHg 72%
    17:00 +17°C° 0.1 mm 5 mps 745 mmHg 75%
    18:00 +17°C° 0.1 mm 4 mps 745 mmHg 78%
    19:00 +15°C° 0.1 mm 4 mps 745 mmHg 82%
    20:00 +14°C° 0 mm 3 mps 746 mmHg 85%
    21:00 +12°C° 0 mm 3 mps 746 mmHg 89%
    22:00 +11°C° 0 mm 3 mps 746 mmHg 92%
    23:00 +11°C° 0 mm 3 mps 746 mmHg 93%

    Day after tomorrow, 18 July, Thursday

    Time Temperature Precipitation Wind Pressure Humidity
    00:00 +11°C° 0 mm 3 mps 746 mmHg 94%
    01:00 +11°C° 0 mm 3 mps 746 mmHg 96%
    02:00 +12°C° 0 mm 3 mps 746 mmHg 95%
    03:00 +12°C° 0 mm 3 mps 746 mmHg 95%
    04:00 +13°C° 0 mm 4 mps 746 mmHg 94%
    05:00 +14°C° 0 mm 4 mps 746 mmHg 91%
    06:00 +15°C° 0 mm 4 mps 747 mmHg 87%
    07:00 +17°C° 0 mm 4 mps 747 mmHg 84%
    08:00 +18°C° 0.1 mm 4 mps 747 mmHg 78%
    09:00 +20°C° 0.1 mm 4 mps 747 mmHg 72%
    10:00 +21°C° 0.1 mm 5 mps 747 mmHg 67%
    11:00 +22°C° 0.2 mm 5 mps 747 mmHg 65%
    12:00 +22°C° 0.2 mm 5 mps 747 mmHg 63%
    13:00 +23°C° 0.2 mm 5 mps 747 mmHg 61%
    14:00 +23°C° 0.5 mm 5 mps 747 mmHg 62%
    15:00 +23°C° 0.5 mm 4 mps 747 mmHg 64%
    16:00 +22°C° 0.5 mm 4 mps 747 mmHg 66%
    17:00 +21°C° 0.1 mm 3 mps 747 mmHg 71%
    18:00 +20°C° 0.1 mm 3 mps 748 mmHg 76%
    19:00 +19°C° 0.1 mm 2 mps 748 mmHg 81%
    20:00 +17°C° 0 mm 2 mps 748 mmHg 84%
    21:00 +16°C° 0 mm 2 mps 748 mmHg 87%
    22:00 +15°C° 0 mm 1 mps 749 mmHg 90%
    23:00 +15°C° 0 mm 1 mps 749 mmHg 91%

    19 July, Friday

    Time Temperature Precipitation Wind Pressure Humidity
    00:00 +14°C° 0 mm 1 mps 749 mmHg 92%
    01:00 +14°C° 0 mm 1 mps 749 mmHg 92%
    02:00 +13°C° 0 mm 1 mps 749 mmHg 93%
    03:00 +13°C° 0 mm 1 mps 749 mmHg 93%
    04:00 +12°C° 0 mm 1 mps 749 mmHg 93%
    05:00 +14°C° 0 mm 1 mps 749 mmHg 88%
    06:00 +16°C° 0 mm 2 mps 750 mmHg 83%
    07:00 +17°C° 0 mm 2 mps 750 mmHg 79%
    08:00 +19°C° 0 mm 2 mps 750 mmHg 72%
    09:00 +20°C° 0 mm 2 mps 750 mmHg 64%
    10:00 +23°C° 0 mm 2 mps 750 mmHg 57%
    11:00 +23°C° 0 mm 2 mps 750 mmHg 53%
    12:00 +24°C° 0 mm 2 mps 750 mmHg 50%
    13:00 +25°C° 0 mm 2 mps 750 mmHg 46%
    14:00 +25°C° 0 mm 2 mps 750 mmHg 46%
    15:00 +25°C° 0 mm 2 mps 750 mmHg 46%
    16:00 +25°C° 0 mm 2 mps 750 mmHg 46%
    17:00 +23°C° 0 mm 1 mps 750 mmHg 52%
    18:00 +22°C° 0 mm 1 mps 750 mmHg 58%
    19:00 +18°C° 0 mm 0 mps 750 mmHg 64%
    20:00 +19°C° 0 mm 1 mps 750 mmHg 65%
    21:00 +18°C° 0 mm 1 mps 750 mmHg 67%
    22:00 +16°C° 0 mm 1 mps 751 mmHg 68%
    23:00 +16°C° 0 mm 1 mps 751 mmHg 70%

    20 July, Saturday

    Time Temperature Precipitation Wind Pressure Humidity
    00:00 +15°C° 0 mm 1 mps 751 mmHg 71%
    01:00 +15°C° 0 mm 1 mps 751 mmHg 73%
    02:00 +14°C° 0 mm 1 mps 751 mmHg 75%
    03:00 +14°C° 0 mm 1 mps 751 mmHg 76%
    04:00 +14°C° 0 mm 1 mps 751 mmHg 77%
    05:00 +16°C° 0 mm 1 mps 751 mmHg 73%
    06:00 +19°C° 0 mm 1 mps 751 mmHg 68%
    07:00 +21°C° 0 mm 1 mps 751 mmHg 64%
    08:00 +23°C° 0 mm 1 mps 752 mmHg 59%
    09:00 +24°C° 0 mm 1 mps 752 mmHg 54%
    10:00 +26°C° 0 mm 1 mps 752 mmHg 49%
    11:00 +26°C° 0 mm 1 mps 752 mmHg 47%
    12:00 +25°C° 0 mm 0 mps 752 mmHg 46%
    13:00 +25°C° 0 mm 0 mps 752 mmHg 44%
    14:00 +25°C° 0 mm 0 mps 752 mmHg 46%
    15:00 +25°C° 0 mm 0 mps 752 mmHg 48%
    16:00 +25°C° 0 mm 0 mps 752 mmHg 51%
    17:00 +25°C° 0 mm 1 mps 752 mmHg 55%
    18:00 +24°C° 0 mm 1 mps 752 mmHg 59%
    19:00 +22°C° 0 mm 1 mps 752 mmHg 63%
    20:00 +21°C° 0 mm 1 mps 752 mmHg 64%
    21:00 +19°C° 0 mm 2 mps 752 mmHg 66%
    22:00 +18°C° 0 mm 2 mps 753 mmHg 68%
    23:00 +18°C° 0 mm 2 mps 753 mmHg 72%

    21 July, Sunday

    Time Temperature Precipitation Wind Pressure Humidity
    00:00 +17°C° 0 mm 2 mps 753 mmHg 76%
    01:00 +16°C° 0 mm 1 mps 753 mmHg 79%
    02:00 +16°C° 0 mm 2 mps 753 mmHg 81%
    03:00 +16°C° 0 mm 2 mps 753 mmHg 83%
    04:00 +16°C° 0 mm 2 mps 753 mmHg 85%
    05:00 +19°C° 0 mm 1 mps 753 mmHg 80%
    06:00 +21°C° 0 mm 1 mps 753 mmHg 75%
    07:00 +23°C° 0 mm 1 mps 753 mmHg 70%
    08:00 +24°C° 0 mm 2 mps 754 mmHg 64%
    09:00 +25°C° 0 mm 2 mps 754 mmHg 58%
    10:00 +27°C° 0 mm 2 mps 754 mmHg 52%
    11:00 +27°C° 0 mm 2 mps 754 mmHg 49%
    12:00 +28°C° 0 mm 2 mps 754 mmHg 46%
    13:00 +28°C° 0 mm 2 mps 754 mmHg 43%
    14:00 +28°C° 0 mm 2 mps 754 mmHg 44%
    15:00 +28°C° 0 mm 2 mps 753 mmHg 45%
    16:00 +28°C° 0 mm 2 mps 753 mmHg 46%
    17:00 +27°C° 0 mm 2 mps 753 mmHg 52%
    18:00 +25°C° 0 mm 2 mps 753 mmHg 58%
    19:00 +24°C° 0 mm 2 mps 753 mmHg 64%
    20:00 +23°C° 0 mm 2 mps 753 mmHg 66%
    21:00 +21°C° 0 mm 2 mps 754 mmHg 68%
    22:00 +21°C° 0 mm 2 mps 754 mmHg 69%
    23:00 +20°C° 0 mm 2 mps 754 mmHg 70%
    Show more